Location: Pian di Sc�
(43.6333°N, 11.5500°E)
Time: 14:26:48
(UTC+00:00)

Cosmos 2219 - Pass Details

Date: 07 August 2020
Orbit: 834 x 860 km, 71.1° (Epoch: 24 September)

Event Time Altitude Azimuth Distance (km) Brightness Sun altitude
Exits shadow 00:45:12 77° 141° (SE) 861 3.0 -26.9°
Maximum altitude 00:45:25 78° 113° (ESE) 856 3.1 -26.9°
Drops below altitude 10° 00:51:02 10° 27° (NNE) 2,452 6.6 -26.5°
Sets 00:53:29 0° 27° (NNE) 3,390 7.7 -26.3°
